カタログに戻る

STARLINK-4423

運用中通信SSO
NORAD 53209·PAYLOAD·🇺🇸 United States

打ち上げ Jul 22, 2022 から Vandenberg Space Force Base

Loading…

次のパス (今後24時間)

TLE

最新Source: CelesTrak SupGP

元期: Sep 15, 2026, 02:30 UTC

1 53209C 22084W   26258.10465278  .00052868  00000+0  16415-2 0  2586
2 53209  97.2831 312.9530 0001077  98.1036 170.1248 15.33405798    15

AllMySatでSTARLINK-4423をリアルタイム追跡

Download on the App Store